TimeEST,TemperatureF,Dew PointF,Humidity,Sea Level PressureIn,VisibilityMPH,Wind Direction,Wind SpeedMPH,Gust SpeedMPH,PrecipitationIn,Events,Conditions,WindDirDegrees,DateUTC
12:54 AM,1.0,-15.0,47,30.02,10.0,WNW,5.8,-,N/A,,Clear,300,2013-01-23 05:54:00
1:54 AM,1.0,-15.0,47,30.03,10.0,NW,9.2,-,N/A,,Clear,320,2013-01-23 06:54:00
2:54 AM,-0.0,-16.1,47,30.04,10.0,WNW,10.4,18.4,N/A,,Clear,300,2013-01-23 07:54:00
3:54 AM,-0.9,-17.0,47,30.04,10.0,WNW,11.5,21.9,N/A,,Clear,300,2013-01-23 08:54:00
4:54 AM,-2.0,-18.0,47,30.06,10.0,NW,10.4,19.6,N/A,,Clear,320,2013-01-23 09:54:00
5:54 AM,-2.9,-20.0,44,30.07,10.0,WNW,13.8,20.7,N/A,,Clear,300,2013-01-23 10:54:00
6:54 AM,-2.9,-20.9,42,30.09,10.0,WNW,15.0,27.6,N/A,,Clear,290,2013-01-23 11:54:00
7:54 AM,-4.0,-20.9,44,30.09,10.0,WNW,16.1,24.2,N/A,,Clear,290,2013-01-23 12:54:00
8:54 AM,-2.9,-22.0,40,30.09,10.0,WNW,16.1,29.9,N/A,,Clear,290,2013-01-23 13:54:00
9:54 AM,-2.0,-23.1,36,30.10,10.0,West,13.8,25.3,N/A,,Clear,280,2013-01-23 14:54:00
10:54 AM,-0.0,-23.1,33,30.10,10.0,WNW,10.4,18.4,N/A,,Clear,290,2013-01-23 15:54:00
11:54 AM,1.0,-22.0,33,30.07,10.0,West,8.1,18.4,N/A,,Clear,270,2013-01-23 16:54:00
12:54 PM,3.0,-20.9,32,30.05,10.0,West,8.1,19.6,0.00,,Clear,270,2013-01-23 17:54:00
1:54 PM,3.0,-20.9,32,30.05,10.0,Variable,5.8,-,N/A,,Clear,0,2013-01-23 18:54:00
2:54 PM,3.0,-20.9,32,30.06,10.0,West,5.8,-,0.00,,Clear,270,2013-01-23 19:54:00
4:54 PM,-0.0,-22.0,35,30.06,10.0,West,11.5,-,N/A,,Clear,260,2013-01-23 21:54:00
5:54 PM,-0.0,-22.0,35,30.07,10.0,West,9.2,19.6,N/A,,Clear,260,2013-01-23 22:54:00
6:54 PM,-0.0,-22.0,35,30.08,10.0,West,3.5,16.1,N/A,,Clear,280,2013-01-23 23:54:00
7:54 PM,-2.0,-20.9,40,30.07,10.0,WSW,5.8,-,N/A,,Clear,250,2013-01-24 00:54:00
8:54 PM,-0.0,-20.9,37,30.06,10.0,West,6.9,-,N/A,,Clear,270,2013-01-24 01:54:00
9:54 PM,-0.9,-20.9,38,30.06,10.0,West,5.8,-,N/A,,Clear,270,2013-01-24 02:54:00
10:54 PM,-2.9,-20.0,44,30.06,10.0,Variable,4.6,-,N/A,,Clear,0,2013-01-24 03:54:00
11:54 PM,-2.0,-20.9,40,30.05,10.0,West,4.6,-,N/A,,Clear,270,2013-01-24 04:54:00